QPF
0.08 0.08 0.08 0.08 0.07 0.05 0.04 0.05 0.05 0.04 0.03 0.02 0.01 0.02 0.03 0.02 0.03 0.06 0.04 0.01 0.01 0.01 0.01 0.01 0.01 0.01 0.01 0.01 0.01 0.01 0.01 0.01 0.02 0.01 0.01 0.02 0.02 0.02 0.03 0.02 0.02 0.02 0.02
0.06 0.06 0.05 0.05 0.05 0.04 0.04 0.04 0.02 0.03 0.02 0.03 0.03 0.02 0.02 0.02 0.02 0.07 0.08 0.03 0.01 0.00 0.00 0.00 0.00 0.00 0.01 0.01 0.01 0.01 0.01 0.01 0.02 0.02 0.02 0.02 0.02 0.03 0.04 0.04 0.02 0.02 0.03
0.04 0.04 0.05 0.04 0.04 0.04 0.03 0.04 0.03 0.02 0.03 0.04 0.05 0.05 0.03 0.03 0.02 0.04 0.06 0.06 0.03 0.01 0.00 0.00 0.00 0.00 0.01 0.02 0.01 0.01 0.01 0.01 0.01 0.01 0.01 0.01 0.02 0.02 0.03 0.03 0.02 0.01 0.01
0.03 0.04 0.04 0.03 0.03 0.02 0.03 0.04 0.04 0.05 0.07 0.08 0.06 0.06 0.05 0.05 0.03 0.03 0.04 0.06 0.08 0.05 0.02 0.01 0.01 0.00 0.01 0.01 0.01 0.01 0.02 0.02 0.01 0.01 0.01 0.01 0.01 0.01 0.01 0.02 0.02 0.02 0.01
0.02 0.02 0.05 0.04 0.03 0.03 0.03 0.03 0.06 0.08 0.10 0.08 0.05 0.04 0.04 0.04 0.04 0.03 0.02 0.03 0.05 0.05 0.04 0.01 0.01 0.00 0.00 0.00 0.00 0.01 0.01 0.02 0.01 0.01 0.01 0.01 0.01 0.02 0.01 0.01 0.02 0.01 0.01
0.03 0.02 0.04 0.04 0.03 0.04 0.06 0.06 0.09 0.07 0.08 0.07 0.05 0.06 0.05 0.02 0.02 0.03 0.02 0.03 0.04 0.03 0.03 0.04 0.03 0.01 0.00 0.00 0.00 0.01 0.01 0.02 0.01 0.01 0.01 0.01 0.01 0.01 0.01 0.01 0.01 0.01 0.01
0.03 0.02 0.04 0.06 0.05 0.06 0.07 0.06 0.08 0.08 0.08 0.08 0.10 0.11 0.09 0.04 0.03 0.02 0.02 0.03 0.03 0.03 0.03 0.04 0.07 0.06 0.02 0.01 0.01 0.01 0.01 0.01 0.02 0.02 0.01 0.02 0.02 0.02 0.02 0.02 0.01 0.01 0.01
0.03 0.02 0.05 0.05 0.05 0.08 0.06 0.06 0.08 0.10 0.09 0.08 0.09 0.13 0.15 0.13 0.07 0.02 0.02 0.03 0.03 0.04 0.04 0.03 0.04 0.04 0.05 0.05 0.01 0.00 0.00 0.01 0.01 0.01 0.01 0.01 0.01 0.01 0.01 0.01 0.01 0.01 0.00
0.03 0.02 0.03 0.04 0.05 0.05 0.06 0.07 0.07 0.09 0.12 0.11 0.05 0.08 0.13 0.14 0.10 0.06 0.02 0.02 0.03 0.04 0.04 0.03 0.02 0.03 0.03 0.06 0.04 0.01 0.00 0.00 0.01 0.02 0.02 0.02 0.01 0.01 0.01 0.01 0.01 0.01 0.01
0.04 0.03 0.03 0.03 0.03 0.03 0.06 0.05 0.06 0.09 0.11 0.10 0.07 0.04 0.05 0.08 0.09 0.11 0.07 0.03 0.02 0.03 0.03 0.03 0.04 0.04 0.04 0.05 0.03 0.00 0.00 0.00 0.00 0.01 0.02 0.02 0.01 0.01 0.00 0.00 0.00 0.00 0.01
0.04 0.03 0.04 0.04 0.03 0.04 0.05 0.05 0.07 0.07 0.08 0.06 0.05 0.04 0.03 0.04 0.04 0.08 0.11 0.07 0.04 0.02 0.02 0.03 0.05 0.04 0.04 0.05 0.03 0.01 0.00 0.00 0.00 0.00 0.01 0.01 0.01 0.01 0.01 0.00 0.00 0.00 0.01
0.05 0.04 0.04 0.05 0.04 0.04 0.04 0.04 0.06 0.05 0.05 0.06 0.05 0.04 0.03 0.03 0.04 0.05 0.05 0.05 0.04 0.02 0.02 0.02 0.03 0.03 0.03 0.03 0.02 0.00 0.00 0.00 0.00 0.00 0.00 0.00 0.00 0.01 0.01 0.00 0.00 0.01 0.01
0.04 0.04 0.05 0.05 0.04 0.03 0.03 0.04 0.04 0.05 0.05 0.06 0.05 0.03 0.03 0.03 0.02 0.02 0.02 0.02 0.02 0.01 0.02 0.02 0.01 0.02 0.02 0.03 0.03 0.01 0.01 0.00 0.00 0.00 0.00 0.00 0.00 0.00 0.00 0.00 0.00 0.00 0.01
0.03 0.05 0.05 0.04 0.03 0.04 0.04 0.06 0.04 0.04 0.05 0.05 0.04 0.04 0.04 0.02 0.01 0.01 0.01 0.02 0.03 0.02 0.02 0.02 0.02 0.02 0.02 0.03 0.02 0.01 0.01 0.01 0.00 0.00 0.00 0.00 0.00 0.00 0.00 0.00 0.00 0.00 0.01
0.04 0.05 0.05 0.04 0.03 0.04 0.05 0.06 0.05 0.04 0.05 0.04 0.04 0.05 0.03 0.02 0.01 0.01 0.01 0.01 0.03 0.04 0.04 0.03 0.02 0.02 0.01 0.02 0.01 0.01 0.02 0.01 0.00 0.00 0.00 0.00 0.00 0.00 0.00 0.00 0.00 0.00 0.00
0.06 0.06 0.07 0.07 0.06 0.05 0.06 0.07 0.06 0.05 0.05 0.04 0.05 0.06 0.04 0.02 0.02 0.02 0.01 0.01 0.01 0.02 0.03 0.02 0.02 0.01 0.01 0.00 0.01 0.01 0.01 0.00 0.00 0.00 0.00 0.00 0.00 0.00 0.00 0.00 0.00 0.00 0.00
0.09 0.07 0.06 0.07 0.08 0.07 0.07 0.08 0.06 0.06 0.05 0.04 0.04 0.04 0.04 0.04 0.04 0.03 0.02 0.02 0.02 0.02 0.02 0.02 0.02 0.01 0.01 0.00 0.01 0.01 0.01 0.00 0.00 0.01 0.01 0.00 0.00 0.00 0.00 0.00 0.00 0.00 0.00
0.07 0.06 0.07 0.08 0.09 0.09 0.09 0.08 0.07 0.07 0.06 0.06 0.05 0.06 0.07 0.07 0.06 0.04 0.03 0.03 0.02 0.01 0.01 0.01 0.01 0.01 0.01 0.01 0.02 0.02 0.00 0.00 0.01 0.01 0.01 0.01 0.00 0.00 0.00 0.00 0.00 0.00 0.00
0.06 0.06 0.06 0.07 0.08 0.07 0.07 0.07 0.07 0.07 0.08 0.09 0.10 0.10 0.09 0.09 0.08 0.06 0.04 0.03 0.02 0.02 0.02 0.01 0.01 0.01 0.01 0.02 0.04 0.02 0.00 0.01 0.00 0.01 0.02 0.01 0.00 0.00 0.00 0.00 0.00 0.00 0.00
0.06 0.05 0.06 0.06 0.07 0.05 0.06 0.06 0.07 0.08 0.08 0.08 0.08 0.09 0.09 0.07 0.06 0.05 0.05 0.04 0.03 0.03 0.02 0.02 0.02 0.02 0.02 0.02 0.03 0.02 0.02 0.02 0.01 0.01 0.02 0.01 0.01 0.01 0.01 0.01 0.01 0.01 0.00
0.06 0.07 0.07 0.06 0.06 0.05 0.05 0.07 0.07 0.07 0.08 0.07 0.07 0.06 0.06 0.06 0.05 0.05 0.05 0.04 0.04 0.04 0.03 0.03 0.03 0.03 0.03 0.05 0.05 0.04 0.03 0.02 0.01 0.01 0.01 0.01 0.01 0.03 0.03 0.02 0.02 0.01 0.01
0.07 0.07 0.07 0.07 0.05 0.04 0.05 0.05 0.06 0.08 0.09 0.09 0.08 0.07 0.07 0.07 0.08 0.07 0.06 0.04 0.03 0.03 0.03 0.04 0.03 0.04 0.05 0.05 0.04 0.04 0.04 0.04 0.03 0.03 0.04 0.02 0.02 0.03 0.03 0.03 0.03 0.02 0.02
0.06 0.06 0.06 0.06 0.05 0.04 0.07 0.08 0.09 0.10 0.12 0.12 0.11 0.10 0.07 0.07 0.07 0.06 0.05 0.04 0.04 0.03 0.03 0.03 0.03 0.05 0.04 0.04 0.04 0.03 0.04 0.04 0.05 0.05 0.05 0.04 0.05 0.06 0.04 0.04 0.03 0.02 0.01
0.06 0.07 0.06 0.06 0.06 0.05 0.06 0.08 0.10 0.09 0.09 0.09 0.08 0.08 0.08 0.09 0.08 0.08 0.08 0.07 0.07 0.07 0.04 0.03 0.03 0.02 0.02 0.02 0.02 0.02 0.03 0.03 0.03 0.03 0.03 0.03 0.03 0.03 0.03 0.02 0.02 0.01 0.01
0.07 0.06 0.06 0.07 0.08 0.07 0.06 0.05 0.06 0.06 0.07 0.07 0.07 0.08 0.09 0.09 0.08 0.07 0.09 0.09 0.08 0.06 0.04 0.03 0.02 0.02 0.01 0.01 0.02 0.01 0.02 0.02 0.01 0.02 0.02 0.03 0.02 0.03 0.02 0.02 0.02 0.01 0.01
0.08 0.09 0.08 0.09 0.10 0.09 0.07 0.06 0.05 0.05 0.06 0.07 0.10 0.10 0.10 0.09 0.08 0.08 0.08 0.08 0.08 0.08 0.06 0.05 0.04 0.03 0.03 0.03 0.03 0.02 0.01 0.02 0.02 0.02 0.02 0.03 0.03 0.03 0.02 0.01 0.01 0.01 0.01
MSLP
1014.72 1014.86 1014.96 1015.03 1015.11 1015.20 1015.32 1015.44 1015.56 1015.64 1015.68 1015.71 1015.73 1015.79 1015.94 1016.19 1016.56 1017.03 1017.57 1018.12 1018.63 1019.04 1019.35 1019.53 1019.62 1019.64 1019.65 1019.69 1019.77 1019.92 1020.12 1020.36 1020.63 1020.90 1021.15 1021.40 1021.62 1021.84 1022.05 1022.25 1022.45 1022.63 1022.79
1014.70 1014.86 1014.98 1015.08 1015.18 1015.30 1015.43 1015.58 1015.72 1015.83 1015.92 1015.98 1016.04 1016.12 1016.25 1016.47 1016.78 1017.18 1017.64 1018.12 1018.59 1019.00 1019.33 1019.56 1019.71 1019.80 1019.86 1019.92 1020.01 1020.13 1020.29 1020.49 1020.72 1020.96 1021.20 1021.44 1021.69 1021.92 1022.14 1022.36 1022.56 1022.74 1022.89
1014.66 1014.85 1015.00 1015.14 1015.27 1015.42 1015.59 1015.76 1015.94 1016.09 1016.22 1016.33 1016.41 1016.50 1016.61 1016.77 1016.99 1017.29 1017.64 1018.02 1018.42 1018.79 1019.11 1019.38 1019.60 1019.76 1019.88 1020.00 1020.11 1020.24 1020.38 1020.55 1020.75 1020.96 1021.19 1021.43 1021.68 1021.94 1022.18 1022.41 1022.62 1022.81 1022.97
1014.59 1014.81 1015.01 1015.19 1015.37 1015.55 1015.76 1015.97 1016.17 1016.37 1016.54 1016.68 1016.79 1016.88 1016.96 1017.06 1017.19 1017.37 1017.59 1017.85 1018.14 1018.44 1018.75 1019.03 1019.30 1019.53 1019.73 1019.91 1020.07 1020.22 1020.37 1020.53 1020.70 1020.90 1021.11 1021.35 1021.61 1021.87 1022.14 1022.38 1022.61 1022.81 1022.97
1014.49 1014.75 1014.99 1015.22 1015.44 1015.67 1015.91 1016.14 1016.38 1016.61 1016.81 1016.99 1017.12 1017.22 1017.28 1017.33 1017.37 1017.44 1017.53 1017.66 1017.83 1018.06 1018.31 1018.60 1018.89 1019.18 1019.45 1019.69 1019.91 1020.10 1020.26 1020.43 1020.59 1020.77 1020.98 1021.21 1021.47 1021.74 1022.01 1022.27 1022.50 1022.71 1022.89
1014.36 1014.65 1014.94 1015.22 1015.49 1015.75 1016.01 1016.27 1016.53 1016.78 1017.01 1017.22 1017.38 1017.49 1017.55 1017.57 1017.56 1017.53 1017.51 1017.53 1017.59 1017.72 1017.92 1018.18 1018.48 1018.80 1019.12 1019.41 1019.68 1019.91 1020.11 1020.28 1020.45 1020.62 1020.82 1021.04 1021.29 1021.55 1021.82 1022.08 1022.31 1022.52 1022.70
1014.23 1014.55 1014.88 1015.20 1015.51 1015.80 1016.08 1016.35 1016.61 1016.87 1017.12 1017.35 1017.54 1017.69 1017.77 1017.79 1017.75 1017.67 1017.58 1017.50 1017.48 1017.53 1017.65 1017.86 1018.14 1018.47 1018.81 1019.14 1019.45 1019.72 1019.94 1020.13 1020.30 1020.48 1020.66 1020.87 1021.10 1021.34 1021.59 1021.83 1022.05 1022.25 1022.41
1014.10 1014.45 1014.82 1015.17 1015.51 1015.82 1016.11 1016.37 1016.63 1016.89 1017.15 1017.40 1017.62 1017.80 1017.92 1017.97 1017.95 1017.86 1017.74 1017.61 1017.52 1017.50 1017.56 1017.71 1017.94 1018.25 1018.58 1018.93 1019.25 1019.54 1019.78 1019.99 1020.18 1020.35 1020.53 1020.72 1020.93 1021.14 1021.36 1021.57 1021.76 1021.92 1022.06
1013.98 1014.36 1014.76 1015.15 1015.51 1015.83 1016.12 1016.38 1016.62 1016.87 1017.12 1017.38 1017.63 1017.85 1018.02 1018.12 1018.14 1018.08 1017.96 1017.82 1017.69 1017.61 1017.61 1017.70 1017.88 1018.13 1018.44 1018.76 1019.09 1019.38 1019.64 1019.87 1020.07 1020.25 1020.43 1020.61 1020.79 1020.97 1021.15 1021.32 1021.46 1021.59 1021.69
1013.87 1014.28 1014.70 1015.12 1015.50 1015.84 1016.13 1016.37 1016.60 1016.83 1017.06 1017.32 1017.59 1017.84 1018.06 1018.21 1018.28 1018.27 1018.19 1018.06 1017.92 1017.81 1017.75 1017.78 1017.89 1018.08 1018.34 1018.62 1018.92 1019.21 1019.48 1019.73 1019.94 1020.14 1020.33 1020.50 1020.67 1020.83 1020.97 1021.10 1021.19 1021.27 1021.32
1013.73 1014.17 1014.62 1015.08 1015.49 1015.84 1016.14 1016.38 1016.59 1016.79 1017.01 1017.25 1017.51 1017.78 1018.03 1018.23 1018.35 1018.39 1018.35 1018.25 1018.12 1017.99 1017.90 1017.87 1017.91 1018.03 1018.22 1018.45 1018.72 1018.99 1019.26 1019.52 1019.76 1019.98 1020.19 1020.37 1020.54 1020.69 1020.81 1020.89 1020.95 1020.98 1020.99
1013.54 1014.01 1014.50 1014.99 1015.44 1015.82 1016.13 1016.38 1016.58 1016.77 1016.96 1017.18 1017.42 1017.68 1017.94 1018.16 1018.32 1018.41 1018.41 1018.34 1018.23 1018.10 1017.98 1017.90 1017.88 1017.93 1018.04 1018.22 1018.43 1018.68 1018.94 1019.21 1019.47 1019.72 1019.96 1020.17 1020.36 1020.50 1020.61 1020.67 1020.70 1020.69 1020.66
1013.27 1013.77 1014.31 1014.84 1015.34 1015.76 1016.11 1016.38 1016.58 1016.76 1016.93 1017.11 1017.33 1017.56 1017.80 1018.03 1018.21 1018.32 1018.36 1018.32 1018.23 1018.10 1017.97 1017.86 1017.78 1017.77 1017.81 1017.91 1018.07 1018.28 1018.52 1018.78 1019.06 1019.34 1019.61 1019.86 1020.06 1020.23 1020.34 1020.39 1020.40 1020.37 1020.32
1012.93 1013.47 1014.05 1014.63 1015.18 1015.66 1016.05 1016.35 1016.58 1016.75 1016.91 1017.06 1017.24 1017.44 1017.65 1017.85 1018.03 1018.16 1018.22 1018.22 1018.15 1018.04 1017.91 1017.77 1017.66 1017.58 1017.56 1017.59 1017.68 1017.84 1018.04 1018.28 1018.56 1018.85 1019.14 1019.41 1019.64 1019.82 1019.95 1020.01 1020.02 1019.99 1019.92
1012.54 1013.12 1013.74 1014.37 1014.97 1015.50 1015.95 1016.29 1016.55 1016.74 1016.89 1017.03 1017.17 1017.33 1017.51 1017.69 1017.85 1017.98 1018.06 1018.09 1018.06 1017.98 1017.85 1017.71 1017.57 1017.45 1017.36 1017.32 1017.34 1017.42 1017.56 1017.76 1018.01 1018.28 1018.57 1018.84 1019.09 1019.28 1019.42 1019.49 1019.51 1019.49 1019.43
1012.15 1012.77 1013.43 1014.10 1014.74 1015.32 1015.81 1016.21 1016.50 1016.72 1016.88 1017.00 1017.13 1017.25 1017.40 1017.55 1017.71 1017.85 1017.95 1018.01 1018.02 1017.97 1017.88 1017.75 1017.60 1017.44 1017.30 1017.19 1017.13 1017.12 1017.18 1017.30 1017.49 1017.71 1017.96 1018.21 1018.44 1018.62 1018.76 1018.84 1018.87 1018.86 1018.83
1011.84 1012.49 1013.17 1013.86 1014.53 1015.14 1015.67 1016.10 1016.43 1016.67 1016.85 1016.98 1017.09 1017.21 1017.33 1017.48 1017.63 1017.78 1017.92 1018.02 1018.08 1018.08 1018.03 1017.93 1017.78 1017.61 1017.42 1017.24 1017.10 1017.00 1016.95 1016.98 1017.06 1017.20 1017.38 1017.57 1017.75 1017.90 1018.02 1018.09 1018.13 1018.13 1018.12
1011.65 1012.32 1013.01 1013.70 1014.38 1014.99 1015.54 1015.98 1016.34 1016.60 1016.79 1016.93 1017.05 1017.17 1017.30 1017.44 1017.61 1017.78 1017.95 1018.10 1018.22 1018.28 1018.28 1018.22 1018.09 1017.91 1017.70 1017.47 1017.25 1017.06 1016.91 1016.82 1016.79 1016.82 1016.89 1016.99 1017.09 1017.18 1017.26 1017.31 1017.33 1017.34 1017.35
1011.61 1012.28 1012.97 1013.64 1014.30 1014.89 1015.42 1015.87 1016.22 1016.49 1016.70 1016.85 1016.99 1017.11 1017.25 1017.42 1017.60 1017.80 1018.01 1018.21 1018.37 1018.49 1018.55 1018.54 1018.45 1018.29 1018.07 1017.81 1017.53 1017.26 1017.02 1016.82 1016.68 1016.58 1016.54 1016.53 1016.53 1016.54 1016.55 1016.56 1016.56 1016.56 1016.58
1011.72 1012.39 1013.05 1013.69 1014.30 1014.85 1015.34 1015.75 1016.09 1016.36 1016.56 1016.73 1016.88 1017.02 1017.18 1017.35 1017.56 1017.78 1018.02 1018.25 1018.46 1018.63 1018.74 1018.78 1018.73 1018.60 1018.40 1018.14 1017.84 1017.53 1017.22 1016.94 1016.69 1016.49 1016.33 1016.21 1016.11 1016.04 1015.97 1015.92 1015.88 1015.87 1015.88
1011.93 1012.59 1013.22 1013.81 1014.36 1014.85 1015.28 1015.65 1015.95 1016.19 1016.39 1016.56 1016.72 1016.88 1017.05 1017.23 1017.45 1017.68 1017.93 1018.18 1018.41 1018.61 1018.76 1018.84 1018.84 1018.76 1018.60 1018.37 1018.08 1017.76 1017.43 1017.10 1016.79 1016.51 1016.26 1016.05 1015.86 1015.69 1015.55 1015.44 1015.35 1015.30 1015.30
1012.20 1012.84 1013.43 1013.97 1014.45 1014.87 1015.23 1015.53 1015.79 1016.01 1016.20 1016.37 1016.53 1016.70 1016.87 1017.06 1017.26 1017.48 1017.72 1017.96 1018.19 1018.39 1018.56 1018.67 1018.71 1018.68 1018.58 1018.40 1018.16 1017.88 1017.56 1017.23 1016.91 1016.59 1016.29 1016.01 1015.76 1015.53 1015.32 1015.14 1015.00 1014.91 1014.87
1012.46 1013.07 1013.62 1014.10 1014.51 1014.86 1015.15 1015.40 1015.62 1015.81 1016.00 1016.17 1016.34 1016.51 1016.68 1016.86 1017.04 1017.23 1017.43 1017.63 1017.82 1018.00 1018.16 1018.29 1018.36 1018.38 1018.34 1018.23 1018.06 1017.85 1017.59 1017.30 1017.00 1016.69 1016.38 1016.08 1015.78 1015.51 1015.25 1015.03 1014.84 1014.70 1014.61
1012.64 1013.22 1013.72 1014.14 1014.49 1014.78 1015.02 1015.23 1015.43 1015.61 1015.80 1015.98 1016.17 1016.35 1016.52 1016.69 1016.84 1016.99 1017.13 1017.26 1017.40 1017.54 1017.66 1017.78 1017.86 1017.92 1017.93 1017.90 1017.82 1017.69 1017.51 1017.29 1017.05 1016.78 1016.49 1016.20 1015.90 1015.60 1015.32 1015.06 1014.84 1014.65 1014.51
1012.69 1013.23 1013.68 1014.05 1014.35 1014.59 1014.80 1014.99 1015.19 1015.39 1015.60 1015.82 1016.04 1016.25 1016.43 1016.59 1016.72 1016.82 1016.90 1016.97 1017.04 1017.11 1017.19 1017.28 1017.36 1017.44 1017.49 1017.52 1017.51 1017.46 1017.37 1017.23 1017.05 1016.84 1016.60 1016.33 1016.05 1015.77 1015.48 1015.21 1014.95 1014.72 1014.53
1012.58 1013.07 1013.47 1013.79 1014.05 1014.26 1014.46 1014.67 1014.89 1015.13 1015.40 1015.68 1015.95 1016.21 1016.43 1016.60 1016.72 1016.79 1016.83 1016.84 1016.84 1016.85 1016.88 1016.92 1016.99 1017.06 1017.14 1017.21 1017.25 1017.26 1017.23 1017.16 1017.04 1016.88 1016.69 1016.46 1016.21 1015.95 1015.67 1015.40 1015.13 1014.88 1014.64
Thickness
5759 5758 5757 5756 5756 5756 5755 5754 5754 5752 5752 5752 5752 5751 5750 5747 5744 5738 5733 5731 5730 5728 5726 5725 5723 5722 5720 5718 5716 5715 5713 5712 5710 5709 5708 5707 5706 5705 5704 5703 5703 5702 5701
5759 5758 5756 5756 5756 5756 5756 5754 5754 5752 5751 5751 5750 5750 5749 5747 5744 5740 5735 5732 5730 5728 5727 5725 5724 5722 5720 5718 5717 5715 5713 5712 5710 5709 5708 5707 5706 5705 5704 5703 5702 5702 5701
5759 5758 5757 5756 5756 5756 5755 5755 5754 5753 5751 5750 5749 5749 5747 5746 5744 5741 5737 5733 5731 5729 5727 5726 5724 5722 5720 5719 5717 5715 5713 5712 5710 5709 5708 5707 5706 5705 5704 5703 5702 5701 5701
5759 5758 5757 5756 5756 5756 5755 5754 5753 5751 5750 5749 5747 5747 5747 5745 5744 5741 5739 5736 5733 5731 5728 5726 5725 5723 5721 5719 5718 5716 5714 5712 5710 5709 5708 5707 5706 5705 5704 5703 5702 5701 5700
5758 5757 5757 5756 5756 5756 5755 5754 5752 5750 5747 5747 5747 5746 5746 5745 5744 5743 5740 5738 5735 5733 5730 5727 5725 5723 5722 5720 5718 5716 5714 5712 5711 5710 5709 5707 5706 5705 5704 5703 5702 5701 5700
5758 5757 5756 5755 5755 5755 5753 5752 5750 5749 5748 5747 5747 5746 5746 5745 5744 5743 5741 5739 5737 5735 5732 5730 5727 5724 5723 5721 5719 5717 5715 5713 5712 5710 5709 5708 5707 5705 5704 5703 5702 5701 5700
5758 5757 5757 5755 5754 5753 5752 5752 5749 5747 5746 5747 5743 5739 5742 5745 5744 5743 5742 5740 5739 5737 5734 5732 5729 5727 5724 5722 5720 5718 5716 5714 5712 5711 5709 5708 5707 5706 5704 5703 5702 5701 5700
5757 5757 5755 5754 5753 5752 5751 5751 5749 5746 5746 5747 5741 5734 5730 5732 5738 5745 5743 5741 5740 5738 5736 5734 5732 5730 5727 5724 5721 5719 5717 5715 5713 5712 5710 5709 5707 5706 5705 5703 5702 5701 5700
5756 5757 5755 5754 5753 5752 5749 5749 5748 5745 5742 5744 5745 5738 5729 5724 5731 5738 5742 5742 5741 5739 5738 5737 5734 5732 5729 5726 5723 5720 5718 5716 5714 5713 5711 5710 5708 5707 5705 5703 5702 5701 5699
5756 5756 5755 5754 5752 5752 5750 5749 5749 5748 5744 5741 5743 5744 5741 5738 5731 5728 5735 5741 5741 5739 5739 5739 5737 5734 5732 5728 5725 5723 5720 5718 5716 5714 5712 5711 5709 5707 5705 5704 5702 5701 5699
5756 5756 5755 5754 5752 5751 5750 5749 5749 5747 5746 5743 5741 5742 5741 5740 5739 5732 5727 5733 5737 5740 5740 5740 5738 5736 5734 5731 5728 5725 5723 5720 5717 5715 5713 5711 5709 5707 5706 5704 5702 5701 5699
5756 5756 5755 5753 5752 5751 5750 5749 5748 5747 5746 5745 5743 5743 5741 5739 5737 5735 5731 5731 5732 5738 5742 5741 5740 5738 5736 5734 5731 5728 5725 5722 5719 5716 5714 5712 5710 5708 5706 5704 5702 5701 5699
5755 5755 5755 5753 5752 5751 5750 5749 5748 5747 5746 5744 5743 5743 5743 5743 5743 5741 5736 5734 5734 5737 5740 5741 5742 5740 5738 5735 5732 5729 5726 5723 5720 5717 5715 5712 5710 5708 5706 5704 5702 5700 5699
5758 5757 5755 5753 5752 5751 5750 5749 5748 5746 5745 5744 5744 5743 5742 5744 5745 5743 5740 5735 5730 5732 5735 5738 5743 5742 5739 5736 5733 5730 5726 5723 5720 5717 5715 5713 5710 5708 5706 5704 5702 5700 5698
5759 5758 5756 5753 5751 5750 5749 5748 5746 5745 5745 5743 5742 5742 5741 5743 5744 5744 5743 5740 5732 5724 5726 5734 5738 5741 5739 5736 5733 5729 5727 5724 5721 5718 5715 5713 5710 5708 5705 5703 5701 5699 5697
5759 5756 5754 5752 5750 5749 5748 5746 5745 5744 5743 5742 5741 5740 5740 5741 5742 5742 5742 5741 5739 5732 5726 5733 5736 5739 5738 5736 5732 5729 5727 5724 5721 5718 5716 5713 5711 5708 5705 5703 5701 5699 5697
5756 5754 5753 5751 5749 5747 5747 5745 5744 5743 5741 5741 5741 5740 5738 5738 5738 5738 5739 5739 5737 5734 5727 5730 5735 5736 5735 5732 5729 5727 5726 5724 5721 5719 5716 5713 5710 5708 5705 5703 5700 5698 5696
5755 5754 5752 5750 5748 5747 5746 5744 5742 5742 5740 5739 5739 5738 5737 5737 5735 5734 5734 5734 5734 5734 5729 5724 5727 5729 5729 5729 5727 5724 5724 5723 5722 5720 5717 5713 5710 5707 5705 5702 5699 5696 5694
5754 5753 5751 5749 5748 5747 5746 5744 5742 5741 5740 5739 5738 5737 5736 5734 5732 5731 5730 5730 5731 5732 5729 5725 5723 5725 5725 5725 5722 5721 5721 5720 5719 5719 5716 5713 5709 5706 5704 5701 5698 5695 5692
5753 5751 5750 5749 5748 5747 5745 5744 5742 5740 5739 5739 5738 5737 5735 5733 5731 5729 5728 5727 5727 5725 5724 5722 5719 5719 5719 5721 5718 5714 5713 5714 5714 5715 5714 5711 5708 5705 5702 5699 5696 5693 5690
5752 5750 5749 5747 5746 5745 5745 5743 5741 5740 5738 5736 5736 5735 5734 5733 5731 5729 5727 5725 5724 5721 5719 5717 5715 5714 5714 5713 5711 5711 5708 5708 5709 5710 5708 5708 5705 5702 5699 5697 5693 5690 5687
5750 5749 5747 5745 5744 5745 5744 5742 5740 5739 5737 5734 5733 5732 5732 5730 5729 5726 5725 5723 5721 5718 5715 5712 5711 5708 5708 5709 5708 5706 5702 5700 5697 5703 5701 5700 5701 5698 5696 5694 5692 5688 5685
5747 5746 5744 5743 5741 5741 5740 5738 5737 5735 5734 5733 5731 5730 5729 5731 5728 5725 5722 5720 5718 5716 5714 5710 5706 5705 5703 5703 5701 5698 5697 5694 5692 5695 5693 5691 5692 5690 5691 5689 5687 5684 5680
5744 5742 5741 5740 5738 5738 5736 5735 5733 5731 5731 5731 5730 5728 5726 5726 5725 5722 5719 5717 5715 5713 5711 5708 5705 5703 5701 5699 5697 5695 5692 5691 5691 5690 5688 5682 5684 5683 5684 5681 5680 5677 5673
5740 5740 5739 5738 5736 5734 5732 5730 5728 5727 5726 5726 5726 5725 5724 5722 5720 5717 5714 5712 5710 5708 5707 5704 5702 5698 5695 5693 5690 5687 5684 5680 5678 5680 5681 5676 5676 5674 5674 5673 5671 5668 5665
5739 5737 5736 5736 5734 5732 5729 5726 5723 5723 5722 5721 5721 5720 5718 5717 5714 5712 5709 5706 5702 5701 5700 5698 5694 5692 5689 5687 5684 5680 5677 5672 5670 5669 5672 5669 5666 5664 5662 5663 5661 5657 5654